Regional Weather Roundup
Issued by NWS Little Rock, AR

Home | Current Version | Previous Version | Graphics & Text | Print | Product List | Glossary On
Versions: 1 2 3 4 5 6 7 8 9 10 11 12 13 14 15 16 17 18 19 20 21 22 23 24 25 26 27 28 29 30 31 32 33 34 35 36 37 38 39 40 41 42 43 44 45 46 47 48 49 50
000
ASUS44 KLZK 311805
RWRLZK

WEATHER ROUNDUP FOR ARKANSAS
NATIONAL WEATHER SERVICE LITTLE ROCK AR
1200 PM CST SAT JAN 31 2015

NOTE: "FAIR" INDICATES FEW OR NO CLOUDS BELOW 12,000 FEET WITH NO
SIGNIFICANT WEATHER AND/OR OBSTRUCTIONS TO VISIBILITY.

ARZ001-003-010-029-311900-
NORTHWEST ARKANSAS

CITY           SKY/WX    TMP DP  RH WIND       PRES   REMARKS
FAYETTEVILLE   CLOUDY    45  22  40 S9        30.20F
6HR MIN TEMP:  37; 6HR MAX TEMP:  47;

FORT SMITH     CLOUDY    49  25  39 SE13      30.24F
6HR MIN TEMP:  40; 6HR MAX TEMP:  49;

HARRISON       CLOUDY    45  20  36 SE12      30.24F
6HR MIN TEMP:  36; 6HR MAX TEMP:  46; 6HR PCP: TRACE;

BENTONVILLE    CLOUDY    46  16  29 S10       30.21F
6HR MIN TEMP:  37; 6HR MAX TEMP:  46;

ROGERS         CLOUDY    47  14  26 SE8       30.20F
6HR MIN TEMP:  40; 6HR MAX TEMP:  47;

SILOAM SPGS    CLOUDY   N/A N/A N/A S10       30.20F
HIGHFILL       CLOUDY    48  14  25 S10       30.20F
6HR MIN TEMP:  38; 6HR MAX TEMP:  48;

SPRINGDALE     MOSUNNY   46  12  25 SE10      30.22F
$$

ARZ004-005-016-311900-
NORTH CENTRAL ARKANSAS

CITY           SKY/WX    TMP DP  RH WIND       PRES   REMARKS
BATESVILLE     CLOUDY    43  25  49 S5        30.32F
6HR MIN TEMP:  36; 6HR MAX TEMP:  43;

FLIPPIN        CLOUDY    45  23  42 S7        30.27F
6HR MIN TEMP:  36; 6HR MAX TEMP:  45;

MTN HOME       CLOUDY    44  25  47 SE7       30.27F
6HR MIN TEMP:  35; 6HR MAX TEMP:  44;

$$

ARZ040-041-311900-
WEST CENTRAL ARKANSAS

CITY           SKY/WX    TMP DP  RH WIND       PRES   REMARKS
MENA           CLOUDY    46  32  57 E3        30.24F
MOUNT IDA      CLOUDY    46  27  47 SE5       30.24F
6HR MIN TEMP:  40; 6HR MAX TEMP:  46;

$$

ARZ009-017-025-026-028-311900-
NORTHEAST ARKANSAS

CITY           SKY/WX    TMP DP  RH WIND       PRES   REMARKS
CORNING        HAZE      45  28  53 SW12      30.35R VSB 3/4
JONESBORO      CLOUDY    41  27  57 SE6       30.32F
6HR MIN TEMP:  34; 6HR MAX TEMP:  42;

NEWPORT        CLOUDY    43  28  55 CALM      30.33F
6HR MIN TEMP:  34; 6HR MAX TEMP:  43;

WALNUT RIDGE   CLOUDY    43  27  52 CALM      30.32F
6HR MIN TEMP:  34; 6HR MAX TEMP:  43;

BLYTHEVILLE    CLOUDY    44  24  45 SE7       30.33F
6HR MIN TEMP:  32; 6HR MAX TEMP:  44;

$$

ARZ022-023-033-042-044-311900-
CENTRAL ARKANSAS

CITY           SKY/WX    TMP DP  RH WIND       PRES   REMARKS
LITTLE ROCK    CLOUDY    45  26  47 SE7       30.32F
6HR MIN TEMP:  39; 6HR MAX TEMP:  45;

N LITTLE ROCK  CLOUDY    43  29  58 S6        30.32F
6HR MIN TEMP:  38; 6HR MAX TEMP:  44;

JACKSONVILLE   CLOUDY    45  27  49 S3        30.31F
6HR MIN TEMP:  37; 6HR MAX TEMP:  45;

SEARCY         CLOUDY    45  28  51 E6        30.33F
6HR MIN TEMP:  37; 6HR MAX TEMP:  45;

HOT SPRINGS    CLOUDY    45  26  47 S7        30.29F
6HR MIN TEMP:  40; 6HR MAX TEMP:  45;

RUSSELLVILLE   CLOUDY    45  28  51 SE7       30.29F
6HR MIN TEMP:  39; 6HR MAX TEMP:  45;

CLINTON        PTSUNNY   45  27  49 SE3       30.32F
$$

ARZ036-311900-
EAST ARKANSAS

CITY           SKY/WX    TMP DP  RH WIND       PRES   REMARKS
WEST MEMPHIS   CLOUDY    43  25  49 SE8       30.32F
6HR MIN TEMP:  37; 6HR MAX TEMP:  43;

$$

ARZ050-053-066-070-073-311900-
SOUTHWEST ARKANSAS

CITY           SKY/WX    TMP DP  RH WIND       PRES   REMARKS
ARKADELPHIA    FAIR      45  30  55 E3        30.30F
6HR MIN TEMP:  39; 6HR MAX TEMP:  45;

CAMDEN         CLOUDY    48  27  43 MISG      30.30F
TEXARKANA      CLOUDY    49  30  48 S5        30.26F
6HR MIN TEMP:  40; 6HR MAX TEMP:  49;

EL DORADO      CLOUDY    50  29  44 SE9       30.28F
6HR MIN TEMP:  37; 6HR MAX TEMP:  50;

DE QUEEN       CLOUDY    47  30  51 E7        30.24F
6HR MIN TEMP:  40; 6HR MAX TEMP:  47;

$$

ARZ056-057-069-311900-
SOUTHEAST ARKANSAS

CITY           SKY/WX    TMP DP  RH WIND       PRES   REMARKS
PINE BLUFF     CLOUDY    43  28  55 SE9       30.31F
6HR MIN TEMP:  38; 6HR MAX TEMP:  43;

STUTTGART      CLOUDY    43  27  52 E7        30.32F
6HR MIN TEMP:  37; 6HR MAX TEMP:  43;

MONTICELLO     CLOUDY    49  27  42 SE6       30.29F
6HR MIN TEMP:  35; 6HR MAX TEMP:  49;


$$




USA.gov is the U.S. government's official web portal to all federal, state and local government web resources and services.